Detroit Lakes, MN

5:35 AM CST on February 08, 2016 (GMT -0600)
Detroit Lakes

Weather History for KDTL - November, 2012

Change the Weather History Date:

Thursday, November 29, 2012

  Actual Average Record
Temperature  
Mean Temperature 24 °F -  
Max Temperature 26 °F - - ()
Min Temperature 21 °F - - ()
Degree Days  
Heating Degree Days 42    
Moisture  
Dew Point 23 °F    
Average Humidity 91    
Maximum Humidity 100    
Minimum Humidity 80    
Precipitation  
Precipitation 0.00 in - - ()
Sea Level Pressure  
Sea Level Pressure 30.10 in    
Wind  
Wind Speed 7 mph (East)    
Max Wind Speed 14 mph    
Max Gust Speed 21 mph    
Visibility 8 miles    
Events      
T = Trace of Precipitation, MM = Missing Value Source: NWS Daily Summary

Daily Weather History Graph

Daily Weather History Graph

Search for Another Location

Airport or City:

Trip Planner

Search our weather history database for the weather conditions in past years. The results will help you decide how hot, cold, wet, or windy it might be!

Date:

Astronomy

Nov. 29, 2012 Rise Set
Actual Time 7:46 AM CST 4:37 PM CST
Civil Twilight 7:11 AM CST 5:12 PM CST
Nautical Twilight 6:33 AM CST 5:50 PM CST
Astronomical Twilight 5:57 AM CST 6:26 PM CST
Moon 5:41 PM CST (11/29) 8:34 AM CST (11/29)
Length of Visible Light 10h 00m
Length of Day
8h 51m
Full, 99% of the Moon is Illuminated
Nov 29
Full
Dec 6
Last Quarter
Dec 13
New
Dec 19
First Quarter
Dec 28
Full

Hourly Weather History & Observations

Time (CST) Temp. Windchill Dew Point Humidity Pressure Visibility Wind Dir Wind Speed Gust Speed Precip Events Conditions
12:13 AM 26.6 °F 20.0 °F 24.8 °F 93% 30.07 in 10.0 mi NE 5.8 mph - N/A   Clear
12:32 AM 26.6 °F 20.0 °F 24.8 °F 93% 30.06 in 10.0 mi NE 5.8 mph - N/A   Clear
12:53 AM 24.8 °F 17.9 °F 23.0 °F 93% 30.06 in 7.0 mi NE 5.8 mph - N/A   Clear
1:13 AM 24.8 °F 16.9 °F 23.0 °F 93% 30.05 in 7.0 mi ENE 6.9 mph - N/A   Clear
1:32 AM 26.6 °F 22.6 °F 23.0 °F 86% 30.06 in 7.0 mi ENE 3.5 mph - N/A   Clear
1:53 AM 24.8 °F 20.5 °F 23.0 °F 93% 30.06 in 7.0 mi NNE 3.5 mph - N/A   Clear
2:13 AM 24.8 °F - 23.0 °F 93% 30.07 in 7.0 mi Calm Calm - N/A   Clear
2:32 AM 23.0 °F - 23.0 °F 100% 30.08 in 7.0 mi Calm Calm - N/A   Clear
2:53 AM 23.0 °F - 23.0 °F 100% 30.08 in 5.0 mi Calm Calm - N/A   Scattered Clouds
3:13 AM 21.2 °F 16.4 °F 21.2 °F 100% 30.09 in 5.0 mi NNE 3.5 mph - N/A   Mostly Cloudy
3:33 AM 26.6 °F 18.2 °F 24.8 °F 93% 30.08 in 4.0 mi NE 8.1 mph - N/A   Overcast
3:53 AM 26.6 °F 18.2 °F 26.6 °F 100% 30.09 in 4.0 mi NE 8.1 mph - N/A   Overcast
4:13 AM 26.6 °F 18.2 °F 26.6 °F 100% 30.08 in 4.0 mi NE 8.1 mph - N/A   Overcast
4:33 AM 26.6 °F 19.1 °F 26.6 °F 100% 30.08 in 4.0 mi ENE 6.9 mph - N/A   Overcast
4:53 AM 26.6 °F 20.0 °F 26.6 °F 100% 30.08 in 4.0 mi ENE 5.8 mph - N/A   Overcast
5:13 AM 26.6 °F 20.0 °F 26.6 °F 100% 30.08 in 4.0 mi ENE 5.8 mph - N/A   Overcast
5:32 AM 26.6 °F 16.8 °F 26.6 °F 100% 30.08 in 5.0 mi East 10.4 mph - N/A   Overcast
5:53 AM 23.0 °F 11.1 °F 23.0 °F 100% 30.09 in 5.0 mi ENE 12.7 mph - N/A   Overcast
6:13 AM 23.0 °F 11.1 °F 23.0 °F 100% 30.09 in 7.0 mi ENE 12.7 mph - N/A   Overcast
6:32 AM 23.0 °F 11.7 °F 21.2 °F 93% 30.09 in 7.0 mi East 11.5 mph 17.3 mph N/A   Overcast
6:53 AM 23.0 °F 12.4 °F 21.2 °F 93% 30.09 in 7.0 mi East 10.4 mph - N/A   Overcast
7:13 AM 23.0 °F 13.1 °F 21.2 °F 93% 30.10 in 7.0 mi ESE 9.2 mph - N/A   Overcast
7:33 AM 23.0 °F 13.1 °F 21.2 °F 93% 30.10 in 7.0 mi ESE 9.2 mph - N/A   Overcast
7:53 AM 23.0 °F 14.7 °F 21.2 °F 93% 30.12 in 7.0 mi East 6.9 mph - N/A   Overcast
8:13 AM 23.0 °F 14.7 °F 21.2 °F 93% 30.12 in 5.0 mi East 6.9 mph - N/A   Overcast
8:33 AM 23.0 °F 13.9 °F 21.2 °F 93% 30.12 in 5.0 mi East 8.1 mph - N/A   Overcast
8:53 AM 23.0 °F 14.7 °F 21.2 °F 93% 30.12 in 5.0 mi East 6.9 mph - N/A   Overcast
9:13 AM 23.0 °F 13.9 °F 21.2 °F 93% 30.12 in 7.0 mi ESE 8.1 mph - N/A   Overcast
9:32 AM 23.0 °F 14.7 °F 21.2 °F 93% 30.14 in 7.0 mi East 6.9 mph - N/A   Overcast
9:53 AM 23.0 °F 13.1 °F 21.2 °F 93% 30.14 in 7.0 mi East 9.2 mph - N/A   Overcast
10:13 AM 23.0 °F 13.9 °F 21.2 °F 93% 30.15 in 7.0 mi East 8.1 mph 16.1 mph N/A   Overcast
10:33 AM 23.0 °F 13.9 °F 21.2 °F 93% 30.15 in 10.0 mi East 8.1 mph 16.1 mph N/A   Overcast
10:52 AM 23.0 °F 12.4 °F 21.2 °F 93% 30.14 in 10.0 mi East 10.4 mph 17.3 mph N/A   Overcast
11:13 AM 23.0 °F 14.7 °F 21.2 °F 93% 30.13 in 10.0 mi East 6.9 mph - N/A   Overcast
11:33 AM 24.8 °F 16.1 °F 21.2 °F 86% 30.13 in 10.0 mi East 8.1 mph - N/A   Overcast
11:52 AM 24.8 °F 14.6 °F 23.0 °F 93% 30.12 in 10.0 mi ESE 10.4 mph - N/A   Overcast
12:13 PM 24.8 °F 15.3 °F 23.0 °F 93% 30.12 in 10.0 mi ENE 9.2 mph - N/A   Overcast
12:33 PM 23.0 °F 13.9 °F 21.2 °F 93% 30.12 in 10.0 mi East 8.1 mph - N/A   Overcast
12:52 PM 24.8 °F 16.9 °F 23.0 °F 93% 30.11 in 10.0 mi ESE 6.9 mph - N/A   Overcast
1:13 PM 26.6 °F 16.8 °F 23.0 °F 86% 30.11 in 10.0 mi ESE 10.4 mph - N/A   Overcast
1:33 PM 26.6 °F 17.5 °F 23.0 °F 86% - 10.0 mi ESE 9.2 mph - N/A   Overcast
1:52 PM 26.6 °F 18.2 °F 23.0 °F 86% 30.10 in 10.0 mi ESE 8.1 mph 16.1 mph N/A   Overcast
2:13 PM 26.6 °F 19.1 °F 23.0 °F 86% 30.10 in 10.0 mi ESE 6.9 mph - N/A   Overcast
2:33 PM 26.6 °F 16.8 °F 23.0 °F 86% 30.09 in 10.0 mi East 10.4 mph - N/A   Overcast
2:52 PM 26.6 °F 17.5 °F 23.0 °F 86% 30.09 in 10.0 mi East 9.2 mph - N/A   Overcast
3:13 PM 26.6 °F 20.0 °F 23.0 °F 86% 30.09 in 10.0 mi ESE 5.8 mph - N/A   Overcast
3:33 PM 26.6 °F 18.2 °F 23.0 °F 86% 30.09 in 10.0 mi East 8.1 mph - N/A   Overcast
3:52 PM 26.6 °F 18.2 °F 23.0 °F 86% 30.09 in 10.0 mi ESE 8.1 mph - N/A   Overcast
4:13 PM 26.6 °F 20.0 °F 23.0 °F 86% 30.09 in 10.0 mi East 5.8 mph - N/A   Mostly Cloudy
4:33 PM 26.6 °F 18.2 °F 23.0 °F 86% 30.09 in 10.0 mi East 8.1 mph - N/A   Overcast
4:52 PM 26.6 °F 19.1 °F 23.0 °F 86% 30.11 in 10.0 mi East 6.9 mph - N/A   Overcast
5:13 PM 26.6 °F 17.5 °F 21.2 °F 80% 30.09 in 10.0 mi East 9.2 mph - N/A   Overcast
5:33 PM 26.6 °F 16.8 °F 21.2 °F 80% 30.10 in 10.0 mi East 10.4 mph - N/A   Overcast
5:52 PM 26.6 °F 19.1 °F 21.2 °F 80% 30.11 in 10.0 mi East 6.9 mph - N/A   Overcast
6:13 PM 24.8 °F 16.9 °F 21.2 °F 86% 30.10 in 10.0 mi East 6.9 mph - N/A   Overcast
6:33 PM 24.8 °F 15.3 °F 21.2 °F 86% 30.11 in 10.0 mi ESE 9.2 mph - N/A   Overcast
6:52 PM 24.8 °F 16.9 °F 21.2 °F 86% 30.11 in 10.0 mi ESE 6.9 mph - N/A   Overcast
7:13 PM 24.8 °F 13.4 °F 21.2 °F 86% - 10.0 mi ESE 12.7 mph - N/A   Overcast
7:33 PM 24.8 °F 13.4 °F 23.0 °F 93% 30.12 in 10.0 mi ESE 12.7 mph 18.4 mph N/A   Overcast
7:52 PM 24.8 °F 14.0 °F 23.0 °F 93% 30.12 in 10.0 mi ESE 11.5 mph 19.6 mph N/A   Overcast
8:13 PM 24.8 °F 14.6 °F 23.0 °F 93% 30.12 in 10.0 mi ESE 10.4 mph 20.7 mph N/A   Overcast
8:33 PM 24.8 °F 14.0 °F 23.0 °F 93% 30.12 in 10.0 mi ESE 11.5 mph 16.1 mph N/A   Overcast
8:52 PM 26.6 °F 18.2 °F 23.0 °F 86% 30.13 in 10.0 mi ESE 8.1 mph 16.1 mph N/A   Overcast
9:13 PM 26.6 °F 17.5 °F 23.0 °F 86% 30.13 in 10.0 mi ESE 9.2 mph 16.1 mph N/A   Overcast
9:33 PM 24.8 °F 13.4 °F 23.0 °F 93% 30.12 in 10.0 mi ESE 12.7 mph 19.6 mph N/A   Overcast
9:52 PM 24.8 °F 15.3 °F 23.0 °F 93% 30.13 in 10.0 mi ESE 9.2 mph - N/A   Overcast
10:13 PM 26.6 °F 17.5 °F 23.0 °F 86% 30.14 in 10.0 mi ESE 9.2 mph - N/A   Overcast
10:33 PM 26.6 °F 16.8 °F 23.0 °F 86% 30.13 in 10.0 mi SE 10.4 mph - N/A   Overcast
10:52 PM 26.6 °F 16.8 °F 24.8 °F 93% 30.14 in 10.0 mi ESE 10.4 mph - N/A   Overcast
11:13 PM 26.6 °F 15.2 °F 24.8 °F 93% 30.13 in 10.0 mi SE 13.8 mph - N/A   Overcast
11:33 PM 26.6 °F 15.2 °F 24.8 °F 93% 30.12 in 10.0 mi ESE 13.8 mph 19.6 mph N/A   Overcast
11:52 PM 26.6 °F 16.8 °F 24.8 °F 93% 30.12 in 10.0 mi ESE 10.4 mph 17.3 mph N/A   Overcast